Location: Canyam�s
(41.5996°N, 2.4450°E)
Time: 22:56:00
(UTC+00:00)

ATLAS CENTAUR R/B - Visible Passes

Search period start: 01 October 2020 00:00
Search period end: 11 October 2020 00:00
Orbit: 476 x 670 km, 64.7° (Epoch: 29 September)

Date Brightness Start Highest point End Pass type
(mag) Time Alt. Az. Time Alt. Az. Time Alt. Az.
07 Oct 3.2 18:45:33 10° N 18:47:01 14° NNE 18:47:01 14° NNE visible
07 Oct 4.4 20:23:08 10° NW 20:23:12 10° NW 20:23:12 10° NW visible
08 Oct 2.8 18:47:32 10° N 18:49:44 19° NNE 18:49:44 19° NNE visible
08 Oct 4.5 20:25:53 10° NW 20:25:55 10° NW 20:25:55 10° NW visible
09 Oct 2.2 18:49:44 10° NNW 18:52:33 28° NE 18:52:33 28° NE visible
10 Oct 1.5 18:52:05 10° NNW 18:55:28 45° NE 18:55:28 45° NE visible
